Location: Unspecified
(0.0000°N, 0.0000°E)
Time: 22:53:39
(UTC+00:00)

Tiros 1 despin weight - Visible Passes

Search period start: 19 November 2019 00:00
Search period end: 29 November 2019 00:00
Orbit: 594 x 642 km, 48.2° (Epoch: 18 November)

Date Brightness Start Highest point End Pass type
(mag) Time Alt. Az. Time Alt. Az. Time Alt. Az.
24 Nov ? 19:10:30 10° N 19:11:49 17° N 19:11:49 17° N visible
25 Nov ? 19:26:24 10° NW 19:30:35 73° N 19:30:35 73° N visible
26 Nov ? 19:43:17 10° WNW 19:47:28 35° SW 19:50:47 15° S visible
27 Nov ? 18:18:17 10° NNW 18:22:36 44° NE 18:27:00 10° ESE visible
27 Nov ? 20:01:40 10° W 20:04:03 14° SW 20:06:27 10° SSW visible
28 Nov ? 18:34:36 10° NW 18:39:05 65° SW 18:43:40 10° SSE visible
